| time (UTC) | temp F | wind direction | speed knots | gust knots | rain 1hr in | rain 24hr in | rain mn in | humidity % | barometer mb |
| 20260510214020 | 69 | 292 | 1.7 | 7.0 | 0.00 | 0.00 | 0.00 | 25 | 1019.9 |
| 20260510213521 | 69 | 314 | 2.6 | 6.1 | 0.00 | 0.00 | 0.00 | 26 | 1019.9 |
| 20260510213032 | 69 | 236 | 2.6 | 6.1 | 0.00 | 0.00 | 0.00 | 25 | 1019.9 |
| 20260510212518 | 69 | 297 | 2.6 | 7.0 | 0.00 | 0.00 | 0.00 | 26 | 1020.0 |
| 20260510212018 | 69 | 354 | 2.6 | 8.7 | 0.00 | 0.00 | 0.00 | 27 | 1020.0 |
| 20260510211535 | 69 | 296 | 3.5 | 8.7 | 0.00 | 0.00 | 0.00 | 26 | 1019.9 |
| 20260510211018 | 69 | 276 | 2.6 | 9.6 | 0.00 | 0.00 | 0.00 | 27 | 1020.0 |
| 20260510210517 | 69 | 350 | 2.6 | 9.6 | 0.00 | 0.00 | 0.00 | 27 | 1019.8 |
| 20260510210032 | 69 | 211 | 2.6 | 7.8 | 0.00 | 0.00 | 0.00 | 26 | 1019.9 |
| 20260510205517 | 69 | 261 | 2.6 | 7.8 | 0.00 | 0.00 | 0.00 | 26 | 1019.8 |
| 20260510205018 | 69 | 255 | 2.6 | 12.2 | 0.00 | 0.00 | 0.00 | 27 | 1019.8 |
| 20260510204544 | 69 | 205 | 1.7 | 12.2 | 0.00 | 0.00 | 0.00 | 25 | 1019.9 |
| 20260510204017 | 69 | 278 | 3.5 | 12.2 | 0.00 | 0.00 | 0.00 | 25 | 1019.9 |
| 20260510203518 | 69 | 23 | 0.9 | 9.6 | 0.00 | 0.00 | 0.00 | 26 | 1020.0 |
| 20260510203033 | 68 | 75 | 2.6 | 9.6 | 0.00 | 0.00 | 0.00 | 24 | 1020.0 |
| 20260510202519 | 69 | 38 | 2.6 | 8.7 | 0.00 | 0.00 | 0.00 | 25 | 1020.0 |
| 20260510202022 | 70 | 164 | 3.5 | 8.7 | 0.00 | 0.00 | 0.00 | 25 | 1020.1 |
| 20260510201530 | 70 | 198 | 0.9 | 5.2 | 0.00 | 0.00 | 0.00 | 29 | 1019.9 |
| 20260510201020 | 69 | 202 | 2.6 | 5.2 | 0.00 | 0.00 | 0.00 | 27 | 1020.0 |
| 20260510200518 | 69 | 290 | 2.6 | 8.7 | 0.00 | 0.00 | 0.00 | 25 | 1020.0 |
| 20260510200031 | 70 | 261 | 2.6 | 8.7 | 0.00 | 0.00 | 0.00 | 25 | 1020.0 |
| 20260510195517 | 69 | 204 | 2.6 | 8.7 | 0.00 | 0.00 | 0.00 | 26 | 1019.9 |
| 20260510195018 | 69 | 56 | 2.6 | 7.8 | 0.00 | 0.00 | 0.00 | 25 | 1019.9 |
| 20260510194530 | 69 | 105 | 2.6 | 7.0 | 0.00 | 0.00 | 0.00 | 24 | 1019.7 |
| 20260510194018 | 69 | 264 | 2.6 | 7.0 | 0.00 | 0.00 | 0.00 | 26 | 1019.8 |
| 20260510193518 | 69 | 137 | 3.5 | 9.6 | 0.00 | 0.00 | 0.00 | 26 | 1019.9 |
| 20260510193032 | 69 | 285 | 2.6 | 9.6 | 0.00 | 0.00 | 0.00 | 29 | 1019.9 |
| 20260510192517 | 69 | 115 | 1.7 | 8.7 | 0.00 | 0.00 | 0.00 | 26 | 1019.8 |
| 20260510192017 | 69 | 47 | 2.6 | 8.7 | 0.00 | 0.00 | 0.00 | 27 | 1019.9 |
| 20260510191535 | 70 | 76 | 1.7 | 8.7 | 0.00 | 0.00 | 0.00 | 27 | 1019.7 |
| 20260510191017 | 69 | 222 | 1.7 | 7.8 | 0.00 | 0.00 | 0.00 | 26 | 1019.7 |
| 20260510190521 | 70 | 287 | 3.5 | 7.8 | 0.00 | 0.00 | 0.00 | 26 | 1019.6 |
| 20260510190034 | 70 | 40 | 2.6 | 9.6 | 0.00 | 0.00 | 0.00 | 27 | 1019.6 |
| 20260510185520 | 69 | 259 | 2.6 | 9.6 | 0.00 | 0.00 | 0.00 | 27 | 1019.8 |
| 20260510185019 | 69 | 243 | 1.7 | 7.8 | 0.00 | 0.00 | 0.00 | 29 | 1019.8 |
| 20260510184534 | 69 | 269 | 2.6 | 7.8 | 0.00 | 0.00 | 0.00 | 27 | 1019.9 |
| 20260510184019 | 69 | 283 | 2.6 | 6.1 | 0.00 | 0.00 | 0.00 | 28 | 1019.6 |
| 20260510183518 | 69 | 35 | 1.7 | 6.1 | 0.00 | 0.00 | 0.00 | 27 | 1019.8 |
| 20260510183032 | 69 | 7 | 1.7 | 7.0 | 0.00 | 0.00 | 0.00 | 30 | 1019.9 |
| 20260510182518 | 69 | 285 | 2.6 | 7.0 | 0.00 | 0.00 | 0.00 | 27 | 1019.8 |
| 20260510182017 | 70 | 229 | 2.6 | 5.2 | 0.00 | 0.00 | 0.00 | 28 | 1019.8 |
| 20260510181536 | 69 | 293 | 1.7 | 7.0 | 0.00 | 0.00 | 0.00 | 27 | 1019.9 |
| 20260510181018 | 69 | 18 | 1.7 | 7.0 | 0.00 | 0.00 | 0.00 | 27 | 1019.9 |
| 20260510180518 | 69 | 260 | 2.6 | 7.0 | 0.00 | 0.00 | 0.00 | 26 | 1019.9 |
| 20260510180035 | 69 | 314 | 2.6 | 7.0 | 0.00 | 0.00 | 0.00 | 28 | 1019.9 |
| 20260510175518 | 69 | 244 | 1.7 | 5.2 | 0.00 | 0.00 | 0.00 | 30 | 1020.0 |
| 20260510175019 | 68 | 1 | 1.7 | 7.0 | 0.00 | 0.00 | 0.00 | 27 | 1019.9 |
| 20260510174534 | 68 | 268 | 2.6 | 7.0 | 0.00 | 0.00 | 0.00 | 25 | 1020.1 |
| 20260510174017 | 68 | 49 | 1.7 | 6.1 | 0.00 | 0.00 | 0.00 | 26 | 1020.1 |
| 20260510173518 | 68 | 301 | 2.6 | 6.1 | 0.00 | 0.00 | 0.00 | 26 | 1020.1 |
| 20260510173031 | 68 | 268 | 1.7 | 5.2 | 0.00 | 0.00 | 0.00 | 25 | 1020.2 |
| 20260510172518 | 68 | 220 | 1.7 | 4.3 | 0.00 | 0.00 | 0.00 | 25 | 1020.1 |
| 20260510172018 | 68 | 354 | 1.7 | 4.3 | 0.00 | 0.00 | 0.00 | 27 | 1020.2 |
| 20260510171530 | 67 | 296 | 1.7 | 7.8 | 0.00 | 0.00 | 0.00 | 28 | 1020.2 |
| 20260510171018 | 67 | 243 | 1.7 | 7.8 | 0.00 | 0.00 | 0.00 | 28 | 1020.2 |
| 20260510170517 | 67 | 19 | 2.6 | 7.8 | 0.00 | 0.00 | 0.00 | 26 | 1020.3 |
| 20260510170031 | 67 | 61 | 2.6 | 7.8 | 0.00 | 0.00 | 0.00 | 30 | 1020.4 |
| 20260510165518 | 67 | 301 | 1.7 | 7.8 | 0.00 | 0.00 | 0.00 | 29 | 1020.4 |
| 20260510165017 | 67 | 307 | 1.7 | 7.8 | 0.00 | 0.00 | 0.00 | 27 | 1020.4 |
| 20260510164547 | 67 | 23 | 2.6 | 7.0 | 0.00 | 0.00 | 0.00 | 27 | 1020.5 |
| 20260510164018 | 67 | 264 | 1.7 | 5.2 | 0.00 | 0.00 | 0.00 | 27 | 1020.4 |
| 20260510163517 | 66 | 130 | 1.7 | 5.2 | 0.00 | 0.00 | 0.00 | 27 | 1020.4 |
| 20260510163035 | 66 | 62 | 2.6 | 7.0 | 0.00 | 0.00 | 0.00 | 27 | 1020.5 |
| 20260510162519 | 66 | 39 | 1.7 | 7.0 | 0.00 | 0.00 | 0.00 | 29 | 1020.3 |
| 20260510162017 | 67 | 45 | 2.6 | 5.2 | 0.00 | 0.00 | 0.00 | 29 | 1020.4 |
| 20260510161530 | 67 | 310 | 1.7 | 7.0 | 0.00 | 0.00 | 0.00 | 27 | 1020.4 |
| 20260510161018 | 67 | 123 | 1.7 | 7.0 | 0.00 | 0.00 | 0.00 | 31 | 1020.3 |
| 20260510160518 | 66 | 266 | 1.7 | 7.8 | 0.00 | 0.00 | 0.00 | 28 | 1020.3 |
| 20260510160033 | 66 | 231 | 2.6 | 7.8 | 0.00 | 0.00 | 0.00 | 30 | 1020.5 |
| 20260510155517 | 65 | 244 | 1.7 | 7.0 | 0.00 | 0.00 | 0.00 | 32 | 1020.2 |
| 20260510155019 | 65 | 285 | 3.5 | 7.0 | 0.00 | 0.00 | 0.00 | 29 | 1020.3 |
| 20260510154544 | 65 | 314 | 2.6 | 6.1 | 0.00 | 0.00 | 0.00 | 30 | 1020.3 |
| 20260510154021 | 65 | 29 | 2.6 | 6.1 | 0.00 | 0.00 | 0.00 | 28 | 1020.2 |
| 20260510153517 | 65 | 356 | 1.7 | 5.2 | 0.00 | 0.00 | 0.00 | 30 | 1020.2 |
| 20260510153030 | 65 | 120 | 1.7 | 6.1 | 0.00 | 0.00 | 0.00 | 31 | 1020.1 |
| 20260510152517 | 64 | 21 | 1.7 | 7.0 | 0.00 | 0.00 | 0.00 | 31 | 1020.0 |
| 20260510152014 | 64 | 60 | 1.7 | 7.0 | 0.00 | 0.00 | 0.00 | 32 | 1019.9 |
| 20260510151531 | 64 | 342 | 1.7 | 7.8 | 0.00 | 0.00 | 0.00 | 33 | 1019.9 |
| 20260510151017 | 64 | 229 | 1.7 | 7.8 | 0.00 | 0.00 | 0.00 | 36 | 1019.9 |
| 20260510150521 | 64 | 212 | 2.6 | 7.8 | 0.00 | 0.00 | 0.00 | 33 | 1019.9 |
| 20260510150043 | 64 | 71 | 0.9 | 4.3 | 0.00 | 0.00 | 0.00 | 34 | 1020.3 |
| 20260510145522 | 63 | 64 | 1.7 | 5.2 | 0.00 | 0.00 | 0.00 | 37 | 1020.3 |
| 20260510145018 | 62 | 347 | 1.7 | 6.1 | 0.00 | 0.00 | 0.00 | 37 | 1019.8 |
| 20260510144542 | 62 | 287 | 1.7 | 7.0 | 0.00 | 0.00 | 0.00 | 41 | 1019.5 |
| 20260510144022 | 62 | 250 | 2.6 | 7.0 | 0.00 | 0.00 | 0.00 | 37 | 1019.6 |
| 20260510143518 | 62 | 76 | 1.7 | 5.2 | 0.00 | 0.00 | 0.00 | 38 | 1019.5 |
| 20260510143039 | 62 | 56 | 0.9 | 5.2 | 0.00 | 0.00 | 0.00 | 40 | 1019.5 |
| 20260510142519 | 61 | 96 | 1.7 | 5.2 | 0.00 | 0.00 | 0.00 | 39 | 1019.5 |
| 20260510142018 | 60 | 61 | 0.9 | 4.3 | 0.00 | 0.00 | 0.00 | 42 | 1019.4 |
| 20260510141535 | 60 | 50 | 0.9 | 5.2 | 0.00 | 0.00 | 0.00 | 43 | 1019.4 |
| 20260510141019 | 59 | 66 | 1.7 | 5.2 | 0.00 | 0.00 | 0.00 | 44 | 1019.4 |
| 20260510140517 | 59 | 63 | 0.9 | 5.2 | 0.00 | 0.00 | 0.00 | 44 | 1019.4 |
| 20260510140034 | 58 | 25 | 1.7 | 5.2 | 0.00 | 0.00 | 0.00 | 44 | 1019.4 |
| 20260510135518 | 58 | 46 | 2.6 | 5.2 | 0.00 | 0.00 | 0.00 | 44 | 1019.5 |
| 20260510135017 | 57 | 262 | 0.9 | 4.3 | 0.00 | 0.00 | 0.00 | 48 | 1019.3 |
| 20260510134536 | 57 | 331 | 0.9 | 6.1 | 0.00 | 0.00 | 0.00 | 49 | 1019.4 |
| 20260510134017 | 56 | 92 | 1.7 | 6.1 | 0.00 | 0.00 | 0.00 | 48 | 1019.5 |
| 20260510133519 | 56 | 337 | 0.0 | 5.2 | 0.00 | 0.00 | 0.00 | 49 | 1019.5 |
| 20260510133032 | 56 | 114 | 0.9 | 5.2 | 0.00 | 0.00 | 0.00 | 49 | 1019.4 |
| 20260510132518 | 55 | 305 | 1.7 | 5.2 | 0.00 | 0.00 | 0.00 | 50 | 1019.3 |
| 20260510132019 | 55 | 359 | 1.7 | 5.2 | 0.00 | 0.00 | 0.00 | 50 | 1019.3 |
| 20260510131544 | 55 | 32 | 1.7 | 48.7 | 0.00 | 0.00 | 0.00 | 51 | 1019.3 |
| 20260510131018 | 54 | 52 | 13.0 | 54.7 | 0.00 | 0.00 | 0.00 | 53 | 1019.2 |
| 20260510130518 | 54 | 285 | 29.5 | 54.7 | 0.00 | 0.00 | 0.00 | 52 | 1019.2 |
| 20260510130030 | 53 | 32 | 25.2 | 58.2 | 0.00 | 0.00 | 0.00 | 54 | 1019.1 |
| 20260510125517 | 53 | 96 | 21.7 | 58.2 | 0.00 | 0.00 | 0.00 | 54 | 1018.9 |
| 20260510125017 | 53 | 65 | 13.9 | 57.4 | 0.00 | 0.00 | 0.00 | 55 | 1019.0 |
| 20260510124539 | 52 | 7 | 9.6 | 47.8 | 0.00 | 0.00 | 0.00 | 56 | 1019.0 |
| 20260510124017 | 52 | 85 | 15.6 | 46.9 | 0.00 | 0.00 | 0.00 | 59 | 1018.7 |
| 20260510123517 | 51 | 0 | 0.9 | 45.2 | 0.00 | 0.00 | 0.00 | 60 | 1018.9 |
| 20260510123035 | 51 | 0 | 0.0 | 3.5 | 0.00 | 0.00 | 0.00 | 60 | 1018.9 |
| 20260510122519 | 51 | 40 | 0.9 | 3.5 | 0.00 | 0.00 | 0.00 | 60 | 1018.7 |
| 20260510122018 | 50 | 34 | 0.0 | 2.6 | 0.00 | 0.00 | 0.00 | 61 | 1018.7 |
| 20260510121537 | 49 | 0 | 0.0 | 0.9 | 0.00 | 0.00 | 0.00 | 63 | 1018.5 |
| 20260510121018 | 49 | 0 | 0.0 | 0.9 | 0.00 | 0.00 | 0.00 | 64 | 1018.4 |
| 20260510120518 | 49 | 0 | 0.0 | 0.9 | 0.00 | 0.00 | 0.00 | 65 | 1018.4 |
| 20260510120035 | 49 | 0 | 0.0 | 0.9 | 0.00 | 0.00 | 0.00 | 64 | 1018.4 |
| 20260510115517 | 48 | 359 | 0.0 | 0.9 | 0.00 | 0.00 | 0.00 | 64 | 1018.0 |
| 20260510115018 | 48 | 0 | 0.0 | 0.9 | 0.00 | 0.00 | 0.00 | 65 | 1018.1 |
| 20260510114530 | 48 | 0 | 0.0 | 0.9 | 0.00 | 0.00 | 0.00 | 64 | 1017.9 |
| 20260510114022 | 48 | 27 | 0.0 | 0.9 | 0.00 | 0.00 | 0.00 | 66 | 1017.6 |
| 20260510113517 | 48 | 0 | 0.0 | 0.9 | 0.00 | 0.00 | 0.00 | 66 | 1017.6 |
| 20260510113031 | 48 | 0 | 0.0 | 0.9 | 0.00 | 0.00 | 0.00 | 66 | 1017.5 |
| 20260510112522 | 48 | 0 | 0.0 | 0.9 | 0.00 | 0.00 | 0.00 | 66 | 1017.5 |
| 20260510112017 | 48 | 0 | 0.0 | 0.9 | 0.00 | 0.00 | 0.00 | 65 | 1017.4 |
| 20260510111531 | 48 | 0 | 0.0 | 0.9 | 0.00 | 0.00 | 0.00 | 63 | 1017.2 |
| 20260510111014 | 48 | 0 | 0.0 | 0.9 | 0.00 | 0.00 | 0.00 | 64 | 1017.4 |
| 20260510110518 | 48 | 0 | 0.0 | 0.9 | 0.00 | 0.00 | 0.00 | 64 | 1017.1 |
| 20260510110032 | 49 | 0 | 0.0 | 0.9 | 0.00 | 0.00 | 0.00 | 64 | 1017.1 |
| 20260510105518 | 49 | 0 | 0.0 | 0.9 | 0.00 | 0.00 | 0.00 | 62 | 1017.2 |
| 20260510105019 | 49 | 0 | 0.0 | 0.9 | 0.00 | 0.00 | 0.00 | 62 | 1017.1 |
| 20260510104532 | 49 | 6 | 0.0 | 0.9 | 0.00 | 0.00 | 0.00 | 63 | 1017.0 |
| 20260510104017 | 49 | 0 | 0.0 | 0.9 | 0.00 | 0.00 | 0.00 | 62 | 1016.8 |
| 20260510103517 | 49 | 0 | 0.0 | 0.9 | 0.00 | 0.00 | 0.00 | 62 | 1016.8 |
| 20260510103033 | 50 | 0 | 0.0 | 0.0 | 0.00 | 0.00 | 0.00 | 63 | 1016.7 |
| 20260510102521 | 50 | 0 | 0.0 | 0.9 | 0.00 | 0.00 | 0.00 | 62 | 1016.6 |
| 20260510102020 | 50 | 0 | 0.0 | 0.9 | 0.00 | 0.00 | 0.00 | 62 | 1016.5 |
| 20260510101531 | 51 | 0 | 0.0 | 0.9 | 0.00 | 0.00 | 0.00 | 59 | 1016.5 |
| 20260510101017 | 51 | 0 | 0.0 | 0.9 | 0.00 | 0.00 | 0.00 | 59 | 1016.3 |
| 20260510100518 | 51 | 67 | 0.0 | 0.9 | 0.00 | 0.00 | 0.00 | 58 | 1016.4 |
| 20260510100035 | 51 | 0 | 0.0 | 0.9 | 0.00 | 0.00 | 0.00 | 58 | 1016.3 |
| 20260510095517 | 51 | 25 | 0.0 | 0.9 | 0.00 | 0.00 | 0.00 | 60 | 1016.1 |
| 20260510095017 | 51 | 0 | 0.0 | 0.9 | 0.00 | 0.00 | 0.00 | 61 | 1016.1 |
| 20260510094536 | 51 | 0 | 0.0 | 0.9 | 0.00 | 0.00 | 0.00 | 60 | 1015.9 |
| 20260510094017 | 52 | 0 | 0.0 | 0.9 | 0.00 | 0.00 | 0.00 | 59 | 1016.0 |
| 20260510093518 | 52 | 0 | 0.0 | 0.9 | 0.00 | 0.00 | 0.00 | 58 | 1015.7 |
| 20260510093031 | 53 | 0 | 0.0 | 0.9 | 0.00 | 0.00 | 0.00 | 56 | 1015.8 |
| 20260510092518 | 53 | 0 | 0.0 | 0.9 | 0.00 | 0.00 | 0.00 | 58 | 1015.3 |
| 20260510092017 | 54 | 0 | 0.0 | 0.9 | 0.00 | 0.00 | 0.00 | 56 | 1015.3 |
| 20260510091533 | 54 | 0 | 0.0 | 1.7 | 0.00 | 0.00 | 0.00 | 55 | 1015.1 |
| 20260510091018 | 54 | 0 | 0.0 | 1.7 | 0.00 | 0.00 | 0.00 | 54 | 1014.9 |
| 20260510090517 | 55 | 68 | 0.0 | 2.6 | 0.00 | 0.00 | 0.00 | 55 | 1014.7 |
| 20260510090031 | 55 | 12 | 0.9 | 2.6 | 0.00 | 0.00 | 0.00 | 56 | 1014.8 |
| 20260510085518 | 55 | 96 | 0.0 | 2.6 | 0.00 | 0.00 | 0.00 | 54 | 1014.7 |
| 20260510085017 | 55 | 0 | 0.9 | 1.7 | 0.00 | 0.00 | 0.00 | 54 | 1014.7 |
| 20260510084534 | 56 | 58 | 0.0 | 1.7 | 0.00 | 0.00 | 0.00 | 53 | 1014.7 |
| 20260510084017 | 56 | 80 | 0.0 | 2.6 | 0.00 | 0.00 | 0.00 | 53 | 1014.6 |
| 20260510083520 | 56 | 281 | 0.0 | 2.6 | 0.00 | 0.00 | 0.00 | 54 | 1014.4 |
| 20260510083032 | 56 | 120 | 0.0 | 1.7 | 0.00 | 0.00 | 0.00 | 54 | 1014.4 |
| 20260510082517 | 57 | 64 | 0.9 | 1.7 | 0.00 | 0.00 | 0.00 | 53 | 1014.3 |
| 20260510082019 | 57 | 50 | 0.0 | 2.6 | 0.00 | 0.00 | 0.00 | 52 | 1014.2 |
| 20260510081530 | 57 | 292 | 0.0 | 4.3 | 0.00 | 0.00 | 0.00 | 52 | 1014.2 |
| 20260510081018 | 58 | 24 | 0.0 | 4.3 | 0.00 | 0.00 | 0.00 | 50 | 1014.3 |
| 20260510080518 | 58 | 56 | 0.9 | 4.3 | 0.00 | 0.00 | 0.00 | 51 | 1014.1 |
| 20260510080034 | 58 | 0 | 0.9 | 4.3 | 0.00 | 0.00 | 0.00 | 52 | 1014.0 |
| 20260510075517 | 58 | 143 | 0.9 | 4.3 | 0.00 | 0.01 | 0.00 | 54 | 1014.0 |
| 20260510075017 | 58 | 37 | 0.9 | 4.3 | 0.00 | 0.01 | 0.00 | 52 | 1014.1 |
| 20260510074542 | 59 | 47 | 0.0 | 3.5 | 0.00 | 0.01 | 0.00 | 53 | 1014.0 |
| 20260510074017 | 59 | 240 | 0.0 | 3.5 | 0.00 | 0.01 | 0.00 | 51 | 1014.1 |
| 20260510073517 | 59 | 53 | 0.9 | 3.5 | 0.00 | 0.01 | 0.00 | 49 | 1014.1 |
| 20260510073042 | 60 | 78 | 0.9 | 1.7 | 0.00 | 0.01 | 0.00 | 50 | 1014.1 |
| 20260510072517 | 60 | 58 | 0.9 | 2.6 | 0.00 | 0.01 | 0.00 | 50 | 1014.1 |
| 20260510072020 | 60 | 89 | 0.0 | 2.6 | 0.00 | 0.01 | 0.00 | 49 | 1014.2 |
| 20260510071532 | 60 | 0 | 0.0 | 2.6 | 0.00 | 0.01 | 0.00 | 50 | 1014.3 |
| 20260510071017 | 60 | 4 | 0.9 | 2.6 | 0.00 | 0.01 | 0.00 | 51 | 1014.3 |
| 20260510070518 | 61 | 349 | 0.9 | 2.6 | 0.00 | 0.01 | 0.00 | 52 | 1014.1 |
| 20260510070031 | 61 | 0 | 0.0 | 2.6 | 0.00 | 0.01 | 0.00 | 52 | 1014.1 |
| 20260510065527 | 61 | 62 | 0.9 | 1.7 | 0.00 | 0.01 | 0.00 | 52 | 1014.0 |
| 20260510065017 | 61 | 71 | 0.9 | 1.7 | 0.00 | 0.01 | 0.00 | 54 | 1014.0 |
| 20260510064544 | 61 | 13 | 0.0 | 1.7 | 0.00 | 0.01 | 0.00 | 57 | 1014.1 |
| 20260510064017 | 61 | 48 | 0.0 | 1.7 | 0.00 | 0.01 | 0.00 | 58 | 1014.1 |
| 20260510063517 | 62 | 0 | 0.0 | 1.7 | 0.00 | 0.01 | 0.00 | 56 | 1014.1 |
| 20260510063031 | 62 | 0 | 0.0 | 0.0 | 0.00 | 0.01 | 0.00 | 56 | 1014.2 |
| 20260510062517 | 62 | 0 | 0.0 | 0.9 | 0.00 | 0.01 | 0.00 | 55 | 1014.1 |
| 20260510062017 | 62 | 0 | 0.0 | 0.9 | 0.00 | 0.01 | 0.00 | 55 | 1014.0 |
| 20260510061532 | 62 | 0 | 0.0 | 0.9 | 0.00 | 0.01 | 0.00 | 54 | 1014.1 |
| 20260510061017 | 62 | 0 | 0.0 | 0.9 | 0.00 | 0.01 | 0.00 | 55 | 1014.2 |
| 20260510060517 | 62 | 0 | 0.0 | 0.9 | 0.00 | 0.01 | 0.00 | 55 | 1014.0 |
| 20260510060033 | 62 | 272 | 0.0 | 0.9 | 0.00 | 0.01 | 0.00 | 53 | 1014.1 |
| 20260510055516 | 62 | 0 | 0.0 | 0.9 | 0.00 | 0.01 | 0.00 | 53 | 1014.0 |
| 20260510055017 | 63 | 0 | 0.0 | 0.9 | 0.00 | 0.01 | 0.00 | 52 | 1014.0 |
| 20260510054530 | 63 | 0 | 0.0 | 0.9 | 0.00 | 0.01 | 0.00 | 52 | 1014.0 |
| 20260510054017 | 63 | 287 | 0.0 | 1.7 | 0.00 | 0.01 | 0.00 | 51 | 1013.6 |
| 20260510053520 | 63 | 0 | 0.0 | 1.7 | 0.00 | 0.01 | 0.00 | 51 | 1013.5 |
| 20260510053041 | 63 | 0 | 0.0 | 0.9 | 0.00 | 0.01 | 0.00 | 51 | 1013.3 |
| 20260510052517 | 63 | 288 | 0.0 | 0.9 | 0.00 | 0.01 | 0.00 | 51 | 1013.2 |
| 20260510052017 | 63 | 0 | 0.0 | 0.9 | 0.00 | 0.01 | 0.00 | 51 | 1013.0 |
| 20260510051546 | 63 | 0 | 0.0 | 1.7 | 0.00 | 0.01 | 0.00 | 51 | 1013.1 |
| 20260510051021 | 63 | 0 | 0.0 | 1.7 | 0.00 | 0.01 | 0.00 | 51 | 1013.1 |
| 20260510050518 | 63 | 289 | 0.0 | 1.7 | 0.00 | 0.01 | 0.00 | 51 | 1012.9 |
| 20260510050035 | 63 | 257 | 0.0 | 1.7 | 0.00 | 0.01 | 0.00 | 51 | 1012.9 |
| 20260510045517 | 63 | 0 | 0.0 | 1.7 | 0.00 | 0.01 | 0.01 | 51 | 1012.9 |
| 20260510045017 | 63 | 250 | 0.0 | 0.9 | 0.00 | 0.01 | 0.01 | 53 | 1012.9 |
| 20260510044530 | 63 | 0 | 0.0 | 0.9 | 0.00 | 0.01 | 0.01 | 54 | 1012.8 |
| 20260510044014 | 63 | 250 | 0.0 | 0.9 | 0.00 | 0.01 | 0.01 | 56 | 1012.9 |
| 20260510043518 | 63 | 250 | 0.0 | 0.9 | 0.00 | 0.01 | 0.01 | 54 | 1012.6 |
| 20260510043031 | 63 | 0 | 0.0 | 0.9 | 0.00 | 0.01 | 0.01 | 54 | 1012.8 |
| 20260510042521 | 63 | 250 | 0.0 | 0.9 | 0.00 | 0.01 | 0.01 | 52 | 1012.5 |
| 20260510042019 | 63 | 0 | 0.0 | 0.9 | 0.00 | 0.01 | 0.01 | 54 | 1012.4 |
| 20260510041534 | 63 | 250 | 0.0 | 0.9 | 0.00 | 0.01 | 0.01 | 52 | 1012.3 |
| 20260510041018 | 63 | 0 | 0.0 | 0.9 | 0.00 | 0.01 | 0.01 | 53 | 1012.3 |
| 20260510040517 | 64 | 0 | 0.0 | 0.9 | 0.00 | 0.01 | 0.01 | 53 | 1012.2 |
| 20260510040033 | 64 | 248 | 0.0 | 1.7 | 0.00 | 0.01 | 0.01 | 52 | 1012.2 |
| 20260510035517 | 64 | 0 | 0.0 | 1.7 | 0.00 | 0.01 | 0.01 | 53 | 1012.2 |
| 20260510035022 | 65 | 262 | 0.0 | 0.0 | 0.00 | 0.01 | 0.01 | 51 | 1012.2 |
| 20260510034532 | 65 | 0 | 0.0 | 0.9 | 0.00 | 0.01 | 0.01 | 53 | 1012.0 |
| 20260510034019 | 65 | 0 | 0.0 | 0.9 | 0.00 | 0.01 | 0.01 | 52 | 1012.1 |
| 20260510033517 | 66 | 0 | 0.0 | 0.9 | 0.00 | 0.01 | 0.01 | 47 | 1012.0 |
| 20260510033032 | 66 | 0 | 0.0 | 1.7 | 0.00 | 0.01 | 0.01 | 49 | 1012.0 |
| 20260510032517 | 66 | 250 | 0.0 | 3.5 | 0.00 | 0.01 | 0.01 | 46 | 1012.0 |
| 20260510032018 | 66 | 304 | 0.0 | 3.5 | 0.00 | 0.01 | 0.01 | 46 | 1011.7 |
| 20260510031532 | 66 | 53 | 0.9 | 3.5 | 0.00 | 0.01 | 0.01 | 48 | 1011.6 |
| 20260510031018 | 66 | 23 | 0.0 | 2.6 | 0.00 | 0.01 | 0.01 | 48 | 1011.5 |
| 20260510030518 | 67 | 71 | 0.9 | 2.6 | 0.00 | 0.01 | 0.01 | 47 | 1011.5 |
| 20260510030032 | 67 | 0 | 0.0 | 3.5 | 0.00 | 0.01 | 0.01 | 47 | 1011.5 |
| 20260510025519 | 67 | 329 | 0.9 | 3.5 | 0.00 | 0.01 | 0.01 | 47 | 1011.4 |
| 20260510025020 | 67 | 47 | 0.9 | 3.5 | 0.00 | 0.01 | 0.01 | 46 | 1011.2 |
| 20260510024533 | 67 | 285 | 0.9 | 2.6 | 0.00 | 0.01 | 0.01 | 47 | 1011.1 |
| 20260510024018 | 67 | 26 | 0.9 | 2.6 | 0.00 | 0.01 | 0.01 | 48 | 1011.0 |
| 20260510023518 | 67 | 96 | 0.0 | 2.6 | 0.00 | 0.01 | 0.01 | 48 | 1010.9 |
| 20260510023032 | 67 | 341 | 0.0 | 2.6 | 0.00 | 0.01 | 0.01 | 48 | 1010.8 |
| 20260510022518 | 67 | 296 | 0.0 | 1.7 | 0.00 | 0.01 | 0.01 | 48 | 1010.6 |
| 20260510022017 | 67 | 6 | 0.0 | 1.7 | 0.00 | 0.01 | 0.01 | 48 | 1010.5 |
| 20260510021533 | 67 | 0 | 0.0 | 2.6 | 0.00 | 0.01 | 0.01 | 48 | 1010.2 |
| 20260510021018 | 68 | 51 | 0.9 | 2.6 | 0.00 | 0.01 | 0.01 | 48 | 1010.0 |
| 20260510020517 | 68 | 0 | 0.0 | 4.3 | 0.00 | 0.01 | 0.01 | 48 | 1009.8 |
| 20260510020031 | 68 | 34 | 0.9 | 5.2 | 0.00 | 0.01 | 0.01 | 46 | 1009.7 |
| 20260510015518 | 68 | 48 | 1.7 | 5.2 | 0.00 | 0.01 | 0.01 | 45 | 1009.5 |
| 20260510015017 | 69 | 37 | 0.9 | 5.2 | 0.00 | 0.01 | 0.01 | 45 | 1009.5 |
| 20260510014529 | 69 | 295 | 1.7 | 5.2 | 0.00 | 0.01 | 0.01 | 45 | 1009.4 |
| 20260510014017 | 69 | 51 | 2.6 | 5.2 | 0.00 | 0.01 | 0.01 | 44 | 1009.1 |
| 20260510013517 | 69 | 25 | 0.9 | 5.2 | 0.00 | 0.01 | 0.01 | 43 | 1009.0 |
| 20260510013033 | 69 | 224 | 1.7 | 7.0 | 0.00 | 0.01 | 0.01 | 43 | 1008.9 |
| 20260510012517 | 70 | 27 | 1.7 | 7.0 | 0.00 | 0.01 | 0.01 | 42 | 1008.9 |
| 20260510012014 | 70 | 40 | 2.6 | 7.0 | 0.00 | 0.01 | 0.01 | 41 | 1008.8 |
| 20260510011532 | 70 | 79 | 1.7 | 7.8 | 0.00 | 0.01 | 0.01 | 41 | 1008.7 |
| 20260510011014 | 70 | 72 | 2.6 | 7.8 | 0.00 | 0.01 | 0.01 | 41 | 1008.7 |
| 20260510010515 | 70 | 65 | 2.6 | 6.1 | 0.00 | 0.01 | 0.01 | 41 | 1008.7 |
| 20260510010030 | 69 | 107 | 0.9 | 3.5 | 0.00 | 0.01 | 0.01 | 46 | 1008.5 |
| 20260510005515 | 69 | 356 | 0.0 | 0.9 | 0.00 | 0.01 | 0.01 | 49 | 1008.4 |
| 20260510005017 | 69 | 0 | 0.0 | 0.9 | 0.00 | 0.01 | 0.01 | 49 | 1008.2 |
| 20260510004529 | 69 | 0 | 0.0 | 0.9 | 0.00 | 0.01 | 0.01 | 50 | 1008.1 |
| 20260510004017 | 70 | 0 | 0.0 | 0.0 | 0.00 | 0.01 | 0.01 | 51 | 1007.9 |
| 20260510003514 | 70 | 0 | 0.0 | 0.0 | 0.00 | 0.01 | 0.01 | 49 | 1007.9 |
| 20260510003031 | 71 | 0 | 0.0 | 0.0 | 0.00 | 0.01 | 0.01 | 50 | 1007.7 |
| 20260510002515 | 72 | 0 | 0.0 | 0.0 | 0.00 | 0.01 | 0.01 | 53 | 1007.6 |
| 20260510002015 | 73 | 0 | 0.0 | 0.0 | 0.00 | 0.01 | 0.01 | 50 | 1007.5 |
| 20260510001532 | 74 | 0 | 0.0 | 0.0 | 0.00 | 0.01 | 0.01 | 46 | 1007.6 |
| 20260510001015 | 75 | 0 | 0.0 | 0.9 | 0.00 | 0.01 | 0.01 | 46 | 1007.4 |
| 20260510000514 | 76 | 0 | 0.0 | 0.9 | 0.00 | 0.01 | 0.01 | 43 | 1007.3 |
| 20260510000030 | 76 | 0 | 0.0 | 0.9 | 0.00 | 0.01 | 0.01 | 38 | 1007.3 |
| 20260509235517 | 76 | 0 | 0.0 | 1.7 | 0.00 | 0.01 | 0.01 | 40 | 1007.2 |
| 20260509235014 | 77 | 307 | 0.0 | 1.7 | 0.00 | 0.01 | 0.01 | 39 | 1007.4 |
| 20260509234530 | 78 | 307 | 0.0 | 1.7 | 0.00 | 0.01 | 0.01 | 37 | 1007.1 |
| 20260509234018 | 79 | 303 | 0.0 | 1.7 | 0.00 | 0.01 | 0.01 | 34 | 1007.2 |
| 20260509233514 | 79 | 295 | 0.0 | 1.7 | 0.00 | 0.01 | 0.01 | 33 | 1007.2 |
| 20260509233030 | 79 | 265 | 0.9 | 1.7 | 0.00 | 0.01 | 0.01 | 32 | 1007.1 |
| 20260509232514 | 79 | 155 | 0.0 | 1.7 | 0.00 | 0.01 | 0.01 | 35 | 1007.1 |
| 20260509232016 | 79 | 12 | 0.9 | 2.6 | 0.00 | 0.01 | 0.01 | 34 | 1007.2 |
| 20260509231534 | 79 | 307 | 0.9 | 3.5 | 0.00 | 0.01 | 0.01 | 34 | 1007.2 |
| 20260509231014 | 79 | 259 | 0.9 | 3.5 | 0.00 | 0.01 | 0.01 | 36 | 1007.2 |
| 20260509230514 | 80 | 245 | 0.9 | 3.5 | 0.00 | 0.01 | 0.01 | 32 | 1007.3 |
| 20260509230034 | 80 | 283 | 0.9 | 4.3 | 0.00 | 0.01 | 0.01 | 31 | 1007.2 |
| 20260509225515 | 80 | 244 | 0.9 | 7.0 | 0.00 | 0.01 | 0.01 | 33 | 1007.1 |
| 20260509225017 | 80 | 293 | 2.6 | 7.0 | 0.00 | 0.01 | 0.01 | 31 | 1007.2 |
| 20260509224530 | 80 | 257 | 0.9 | 5.2 | 0.00 | 0.01 | 0.01 | 34 | 1007.2 |
| 20260509224015 | 80 | 283 | 1.7 | 5.2 | 0.00 | 0.01 | 0.01 | 32 | 1007.1 |
| 20260509223514 | 82 | 288 | 1.7 | 5.2 | 0.00 | 0.01 | 0.01 | 36 | 1007.0 |
| 20260509223032 | 82 | 287 | 0.9 | 3.5 | 0.00 | 0.01 | 0.01 | 33 | 1006.9 |
| 20260509222517 | 81 | 238 | 0.9 | 4.3 | 0.00 | 0.01 | 0.01 | 34 | 1007.0 |
| 20260509222015 | 81 | 26 | 0.9 | 4.3 | 0.00 | 0.01 | 0.01 | 33 | 1006.9 |
| 20260509221530 | 81 | 284 | 2.6 | 6.1 | 0.00 | 0.01 | 0.01 | 30 | 1007.0 |
| 20260509221017 | 81 | 297 | 0.9 | 6.1 | 0.00 | 0.01 | 0.01 | 32 | 1007.1 |
| 20260509220516 | 81 | 344 | 0.9 | 6.1 | 0.00 | 0.01 | 0.01 | 30 | 1007.1 |
| 20260509220040 | 81 | 325 | 1.7 | 6.1 | 0.00 | 0.01 | 0.01 | 32 | 1006.9 |
| 20260509215518 | 82 | 344 | 1.7 | 6.1 | 0.00 | 0.03 | 0.01 | 31 | 1006.9 |
| 20260509215018 | 82 | 247 | 1.7 | 5.2 | 0.00 | 0.03 | 0.01 | 29 | 1006.9 |
| 20260509214533 | 82 | 327 | 1.7 | 5.2 | 0.00 | 0.03 | 0.01 | 33 | 1006.9 |